Location: ??????
(55.2000°N, 38.3000°E)
Time: 00:59:23
(UTC+00:00)

Cosmos 1741 Rocket - Pass Details

Date: 15 November 2025
Orbit: 756 x 778 km, 74.0° (Epoch: 12 December)

Event Time Altitude Azimuth Distance (km) Brightness Sun altitude
Exits shadow 02:26:44 16° 338° (NNW) 1,929 5.8 -21.4°
Maximum altitude 02:30:57 67° 59° (ENE) 845 4.3 -20.8°
Drops below altitude 10° 02:36:13 10° 142° (SE) 2,328 7.0 -20.1°
Sets 02:38:37 0° 145° (SE) 3,250 7.8 -19.8°
